Regional Weather Roundup
Issued by NWS

Home | Current Version | Previous Version | Graphics & Text | Print | Product List | Glossary On
Versions: 1 2 3 4 5 6 7 8 9 10 11 12 13 14 15 16 17 18 19 20 21 22 23 24 25 26 27 28 29 30 31 32 33 34 35 36 37 38 39 40 41 42 43 44 45 46 47 48 49 50
000
ASUS43 KLOT 011800
RWRIL

ILLINOIS REGIONAL WEATHER ROUNDUP
NATIONAL WEATHER SERVICE CHICAGO/ROMEOVILLE IL
100 PM CDT TUE SEP 01 2015

NOTE: "FAIR" INDICATES FEW OR NO CLOUDS BELOW 12,000 FEET WITH NO
SIGNIFICANT WEATHER AND/OR OBSTRUCTIONS TO VISIBILITY.

* THESE STATIONS ARE NOT UNDER NWS QUALITY CONTROL. THEY ALSO MAY NOT
  REPORT WEATHER SUCH AS PRECIPITATION OR FOG.

ILZ001-002-007-009-015-016-024-011900-
NORTHWEST ILLINOIS

CITY           SKY/WX    TMP DP  RH WIND       PRES   REMARKS
MOLINE         SUNNY     89  71  55 SW8       30.00F HX  95
6HR MIN TEMP:  71; 6HR MAX TEMP:  89;

STERLING*      MOSUNNY   90  73  58 SW7       30.00F HX  98
$$

ILZ003-004-008-010-011-017-018-011900-
NORTH CENTRAL ILLINOIS

CITY           SKY/WX    TMP DP  RH WIND       PRES   REMARKS
ROCKFORD       MOSUNNY   88  71  57 SW13      30.03F HX  94
6HR MIN TEMP:  69; 6HR MAX TEMP:  88;

FREEPORT*      SUNNY     85  73  68 S8        30.03F HX  92
$$

ILZ005-006-012>014-019>023-011900-
NORTHEAST ILLINOIS

CITY           SKY/WX    TMP DP  RH WIND       PRES   REMARKS
CHICAGO-OHARE  MOSUNNY   87  72  60 S12G17    30.03F HX  93
6HR MIN TEMP:  71; 6HR MAX TEMP:  87;

CHICAGO-MIDWAY PTSUNNY   87  73  62 S14G23    30.04F HX  94
6HR MIN TEMP:  74; 6HR MAX TEMP:  88;

AURORA         SUNNY     87  73  62 S10       30.04F HX  94
6HR MIN TEMP:  69; 6HR MAX TEMP:  87;

LANSING*       MOSUNNY   81  70  69 SW13G18   30.07F HX  84
WAUKEGAN       PTSUNNY   83  73  72 SE9       30.02S HX  89
6HR MIN TEMP:  69; 6HR MAX TEMP:  86;

DUPAGE AIRPORT MOSUNNY   86  73  65 SW10      30.03F HX  93
6HR MIN TEMP:  70; 6HR MAX TEMP:  87; 6HR PCP: TRACE;

WHEELING       MOSUNNY   88  71  57 SW12      30.03F HX  94
6HR MIN TEMP:  70; 6HR MAX TEMP:  88; 6HR PCP: TRACE;

NORTHERLY ISL    N/A     84  70  62 S12         N/A  HX  88
$$

LMZ740>746-011900-
SOUTHERN LAKE MICHIGAN

STATION/POSITION SKY/WX   TEMP    WIND        PRES    VSBY  WAVE
                          AIR SEA DIR/SP/G                  HT/PER
                          (F)     (DEG/KT/KT) (MB)    (MI)  (FT/S)
SOUTHERN BUOY              72 70  180/ 14/ 16 1016.5F         1/ 3
WILMETTE HARBOR            69 62  310/  8/ 10   N/A           1
HARRISON CRIB              78     160/ 12/ 14   N/A
BURNHAM HARBOR             84     190/ 11/ 15   N/A
CALUMET HARBOR             82     180/ 10/ 14   N/A
BURNS HARBOR               80     200/ 14/ 19 1018.6S
MICHIGAN CITY              81     150/ 12/ 14   N/A
MICHIGAN CITY 6N           78 73  200/  8/ 10   N/A           0
ST. JOSEPH                 76 73  280/  4/  4   N/A           1
$$

ILZ025>027-034>036-040-047-049-050-058-095>099-011900-
WEST-CENTRAL ILLINOIS

CITY           SKY/WX    TMP DP  RH WIND       PRES   REMARKS
QUINCY         SUNNY     89  67  47 SW6       30.05F HX  92
$$

ILZ028>032-037-038-041>044-048-051>054-059>061-011900-
CENTRAL ILLINOIS

CITY           SKY/WX    TMP DP  RH WIND       PRES   REMARKS
DECATUR        SUNNY     87  71  58 S10       30.08F HX  93
PEORIA         SUNNY     91  71  51 VRB6      30.04F HX  97
6HR MIN TEMP:  73; 6HR MAX TEMP:  91;

SPRINGFIELD    SUNNY     90  72  55 S6        30.06F HX  97
6HR MIN TEMP:  73; 6HR MAX TEMP:  91;

TAYLORVILLE    NOT AVBL
$$

ILZ033-039-045-046-055>057-062-063-011900-
EAST-CENTRAL ILLINOIS

CITY           SKY/WX    TMP DP  RH WIND       PRES   REMARKS
CHAMPAIGN      CLOUDY    77  70  79 E3        30.11F
MATTOON        MOSUNNY   83  68  60 S9        30.09F HX  86
$$

ILZ079-100>102-011900-
SOUTHWEST ILLINOIS

CITY           SKY/WX    TMP DP  RH WIND       PRES   REMARKS
BELLEVILLE     SUNNY     89  73  60 VRB2      30.07F HX  97
CAHOKIA*       SUNNY     89  68  49 VRB5      30.08F HX  93
$$

ILZ064>066-069>071-074>076-080>082-084>086-088>090-092>094-011900-
SOUTH-CENTRAL ILLINOIS

CITY           SKY/WX    TMP DP  RH WIND       PRES   REMARKS
CARBONDALE     SUNNY     86  68  54 S9        30.11F HX  89
6HR MIN TEMP:  66; 6HR MAX TEMP:  86;

MT. VERNON     SUNNY     90  70  51 S8        30.11F HX  95
$$

ILZ067-068-072-073-078-083-087-091-011900-
SOUTHEAST ILLINOIS

CITY           SKY/WX    TMP DP  RH WIND       PRES   REMARKS
LAWRENCEVILLE  PTSUNNY   85  65  51 CALM      30.13F HX  86
FLORA*         SUNNY     87  67  51 CALM      30.11F HX  90
ROBINSON*      PTSUNNY   79  69  72 CALM      30.14S HX  82
$$

ABBREVIATIONS USED IN REMARKS
   TC - TEMPERATURE IN CELSIUS
  WCI - WIND CHILL INDEX
   HX - HEAT INDEX
  VSB - VISIBILITY
$$



USA.gov is the U.S. government's official web portal to all federal, state and local government web resources and services.